Location: Ariel
(45.9570°N, 122.5700°W)
Time: 14:51:53
(UTC-07:00)

BEESAT - Visible Passes

Search period start: 25 April 2019 00:00
Search period end: 05 May 2019 00:00
Orbit: 701 x 709 km, 98.6° (Epoch: 25 April)

Date Brightness Start Highest point End Pass type
(mag) Time Alt. Az. Time Alt. Az. Time Alt. Az.
25 Apr ? 04:13:10 10° SE 04:17:20 31° ENE 04:21:32 10° N visible
26 Apr ? 03:22:16 10° ENE 03:23:43 11° NE 03:25:10 10° NE visible
26 Apr ? 04:55:54 10° SSE 05:00:38 77° ENE 05:05:26 10° NNW visible
27 Apr ? 04:02:48 10° ESE 04:06:40 25° ENE 04:10:34 10° N visible
28 Apr ? 04:45:14 10° SSE 04:49:54 61° ENE 04:54:37 10° N visible
29 Apr ? 03:52:32 10° ESE 03:56:01 21° ENE 03:59:32 10° NNE visible
30 Apr ? 04:34:37 10° SE 04:39:11 48° ENE 04:43:46 10° N visible
01 May ? 03:42:22 10° E 03:45:23 17° ENE 03:48:24 10° NNE visible
01 May ? 05:17:53 10° S 05:22:37 68° WSW 05:27:23 10° NNW visible
02 May ? 04:24:06 10° SE 04:28:28 38° ENE 04:32:53 10° N visible
03 May ? 03:32:24 10° E 03:34:46 14° ENE 03:37:08 10° NNE visible
03 May ? 05:07:04 10° SSE 05:11:50 86° WSW 05:16:39 10° NNW visible
04 May ? 04:13:38 10° SE 04:17:47 31° ENE 04:21:58 10° N visible
